TimeCST,TemperatureF,Dew PointF,Humidity,Sea Level PressureIn,VisibilityMPH,Wind Direction,Wind SpeedMPH,Gust SpeedMPH,PrecipitationIn,Events,Conditions,WindDirDegrees,DateUTC
12:53 AM,39.0,30.9,73,29.91,10.0,NW,12.7,-,N/A,,Partly Cloudy,320,2013-02-14 06:53:00
1:53 AM,35.1,30.0,82,29.94,10.0,WNW,8.1,-,N/A,,Clear,290,2013-02-14 07:53:00
2:53 AM,33.1,28.9,85,29.94,10.0,WNW,8.1,-,N/A,,Clear,290,2013-02-14 08:53:00
3:53 AM,33.1,28.9,85,29.95,10.0,West,10.4,-,N/A,,Clear,270,2013-02-14 09:53:00
4:53 AM,32.0,28.0,85,29.98,10.0,West,11.5,-,N/A,,Clear,270,2013-02-14 10:53:00
5:53 AM,32.0,27.0,82,29.99,10.0,West,11.5,-,N/A,,Clear,280,2013-02-14 11:53:00
6:53 AM,30.9,27.0,85,30.02,10.0,West,9.2,-,N/A,,Clear,280,2013-02-14 12:53:00
7:53 AM,30.9,27.0,85,30.04,10.0,WNW,8.1,-,N/A,,Clear,300,2013-02-14 13:53:00
8:53 AM,34.0,28.0,79,30.06,10.0,WNW,9.2,-,N/A,,Clear,300,2013-02-14 14:53:00
9:53 AM,37.0,27.0,67,30.08,10.0,WNW,15.0,-,N/A,,Clear,300,2013-02-14 15:53:00
10:53 AM,39.9,21.9,49,30.09,10.0,NNW,18.4,28.8,N/A,,Clear,330,2013-02-14 16:53:00
11:53 AM,42.1,21.9,45,30.10,10.0,NW,26.5,33.4,N/A,,Clear,320,2013-02-14 17:53:00
12:53 PM,43.0,23.0,45,30.10,10.0,NW,17.3,28.8,N/A,,Scattered Clouds,320,2013-02-14 18:53:00
1:53 PM,43.0,18.0,37,30.12,10.0,NW,28.8,36.8,N/A,,Partly Cloudy,320,2013-02-14 19:53:00
2:53 PM,41.0,19.0,41,30.14,10.0,NW,29.9,38.0,N/A,,Overcast,310,2013-02-14 20:53:00
3:53 PM,39.9,19.0,43,30.16,10.0,NW,25.3,36.8,N/A,,Overcast,320,2013-02-14 21:53:00
4:53 PM,36.0,21.9,57,30.19,10.0,NW,31.1,39.1,N/A,,Overcast,310,2013-02-14 22:53:00
5:53 PM,32.0,19.0,59,30.22,10.0,NW,29.9,41.4,N/A,,Overcast,320,2013-02-14 23:53:00
6:38 PM,30.2,19.4,64,30.20,10.0,NNW,27.6,42.6,N/A,,Overcast,330,2013-02-15 00:38:00
6:53 PM,28.9,19.0,67,30.27,10.0,NNW,34.5,43.7,N/A,,Overcast,330,2013-02-15 00:53:00
7:35 PM,26.6,17.6,69,30.24,10.0,NNW,23.0,32.2,N/A,,Scattered Clouds,340,2013-02-15 01:35:00
7:53 PM,26.1,19.0,75,30.32,10.0,North,26.5,31.1,N/A,,Scattered Clouds,350,2013-02-15 01:53:00
8:53 PM,24.1,18.0,77,30.34,10.0,NNW,16.1,-,N/A,,Partly Cloudy,340,2013-02-15 02:53:00
9:53 PM,23.0,17.1,78,30.36,10.0,NNW,16.1,-,N/A,,Scattered Clouds,340,2013-02-15 03:53:00
10:15 PM,23.0,17.6,80,30.30,10.0,NNW,13.8,-,N/A,,Mostly Cloudy,340,2013-02-15 04:15:00
10:30 PM,23.0,17.6,80,30.31,10.0,NNW,13.8,-,N/A,,Scattered Clouds,330,2013-02-15 04:30:00
10:44 PM,23.0,17.6,80,30.31,10.0,NNW,9.2,-,N/A,,Mostly Cloudy,330,2013-02-15 04:44:00
10:53 PM,23.0,17.1,78,30.37,10.0,NNW,9.2,-,N/A,,Mostly Cloudy,340,2013-02-15 04:53:00
11:11 PM,21.2,17.6,86,30.31,10.0,NNW,9.2,-,N/A,,Scattered Clouds,340,2013-02-15 05:11:00
11:53 PM,21.0,16.0,81,30.38,10.0,NNW,15.0,-,N/A,,Clear,330,2013-02-15 05:53:00